Sparta, IL

11:45 AM CST on December 18, 2017 (GMT -0600)
Sparta Community-Hunter

Weather History for KSAR - July, 2013

Change the Weather History Date:

Monday, July 1, 2013

  Actual Average (KBLV) Record (KBLV)
Temperature  
Mean Temperature 68 °F -  
Max Temperature 73 °F 89 °F 104 °F (1980)
Min Temperature 64 °F 64 °F 53 °F (1976)
Cooling Degree Days 4    
Growing Degree Days 18 (Base 50)    
Moisture  
Dew Point 63 °F    
Average Humidity 85    
Maximum Humidity 94    
Minimum Humidity 73    
Precipitation  
Precipitation 0.67 in - - ()
Sea Level Pressure  
Sea Level Pressure 29.93 in    
Wind  
Wind Speed 7 mph (North)    
Max Wind Speed 14 mph    
Max Gust Speed 20 mph    
Visibility 10 miles    
Events Rain , Thunderstorm    
Averages and records for this station are not official NWS values.
T = Trace of Precipitation, MM = Missing Value Source: NWS Daily Summary

Daily Weather History Graph

Daily Weather History Graph

Search for Another Location

Airport or City:

Trip Planner

Search our weather history database for the weather conditions in past years. The results will help you decide how hot, cold, wet, or windy it might be!

Date:

Astronomy

Jul. 01, 2013 Rise Set
Actual Time 5:39 AM CDT 8:25 PM CDT
Civil Twilight 5:08 AM CDT 8:57 PM CDT
Nautical Twilight 4:28 AM CDT 9:36 PM CDT
Astronomical Twilight 3:44 AM CDT 10:20 PM CDT
Moon 1:05 AM CDT (7/1) 2:44 PM CDT (7/1)
Length of Visible Light 15h 48m
Length of Day
14h 46m
Waning Crescent, 35% of the Moon is Illuminated
Jul 1
Waning Crescent
Jul 8
New
Jul 15
First Quarter
Jul 22
Full
Jul 29
Last Quarter

Hourly Weather History & Observations

Time (CDT) Temp. Dew Point Humidity Pressure Visibility Wind Dir Wind Speed Gust Speed Precip Events Conditions
12:15 AM 69.8 °F 64.4 °F 83% 29.89 in 10.0 mi North 6.9 mph - N/A   Overcast
12:35 AM 69.8 °F 64.4 °F 83% 29.89 in 10.0 mi North 6.9 mph - N/A   Overcast
12:55 AM 69.8 °F 64.4 °F 83% 29.88 in 10.0 mi North 6.9 mph - N/A   Overcast
1:15 AM 69.8 °F 64.4 °F 83% 29.88 in 10.0 mi North 4.6 mph - N/A   Overcast
1:35 AM 69.8 °F 64.4 °F 83% 29.88 in 10.0 mi North 4.6 mph - N/A   Overcast
1:55 AM 69.8 °F 64.4 °F 83% 29.88 in 10.0 mi North 3.5 mph - N/A   Overcast
2:15 AM 68.0 °F 64.4 °F 88% 29.88 in 7.0 mi North 4.6 mph - N/A   Overcast
2:35 AM 68.0 °F 62.6 °F 83% 29.88 in 10.0 mi NNW 5.8 mph - N/A   Overcast
2:55 AM 68.0 °F 62.6 °F 83% 29.88 in 10.0 mi NNW 8.1 mph - N/A   Overcast
3:15 AM 68.0 °F 60.8 °F 78% 29.88 in 10.0 mi North 8.1 mph - N/A   Overcast
3:35 AM 66.2 °F 60.8 °F 83% 29.88 in 10.0 mi North 8.1 mph - N/A   Mostly Cloudy
3:55 AM 66.2 °F 60.8 °F 83% 29.88 in 10.0 mi North 8.1 mph - N/A   Mostly Cloudy
4:15 AM 66.2 °F 60.8 °F 83% 29.89 in 10.0 mi North 9.2 mph - N/A   Overcast
4:35 AM 66.2 °F 60.8 °F 83% 29.89 in 10.0 mi North 10.4 mph - N/A   Overcast
4:55 AM 64.4 °F 60.8 °F 88% 29.89 in 10.0 mi North 5.8 mph - N/A Rain Light Rain
5:15 AM 64.4 °F 60.8 °F 88% 29.90 in 10.0 mi NNW 6.9 mph - N/A   Overcast
5:35 AM 64.4 °F 60.8 °F 88% 29.90 in 10.0 mi NNW 6.9 mph - N/A   Overcast
5:55 AM 64.4 °F 60.8 °F 88% 29.91 in 10.0 mi North 9.2 mph - N/A   Overcast
6:15 AM 64.4 °F 59.0 °F 83% 29.91 in 10.0 mi NNW 6.9 mph - N/A   Overcast
6:35 AM 64.4 °F 59.0 °F 83% 29.91 in 10.0 mi NNW 8.1 mph - N/A   Overcast
6:55 AM 64.4 °F 59.0 °F 83% 29.91 in 10.0 mi NNW 8.1 mph - N/A   Overcast
7:15 AM 64.4 °F 57.2 °F 77% 29.92 in 10.0 mi NNW 5.8 mph - N/A   Overcast
7:35 AM 64.4 °F 59.0 °F 83% 29.92 in 10.0 mi North 5.8 mph - N/A   Scattered Clouds
7:55 AM 64.4 °F 59.0 °F 83% 29.93 in 10.0 mi North 8.1 mph - N/A   Scattered Clouds
8:15 AM 66.2 °F 59.0 °F 78% 29.94 in 10.0 mi North 6.9 mph - N/A   Mostly Cloudy
8:35 AM 66.2 °F 60.8 °F 83% 29.94 in 10.0 mi North 6.9 mph - N/A   Scattered Clouds
8:55 AM 68.0 °F 60.8 °F 78% 29.94 in 10.0 mi North 8.1 mph - N/A   Scattered Clouds
9:15 AM 68.0 °F 60.8 °F 78% 29.94 in 10.0 mi North 10.4 mph - N/A   Scattered Clouds
9:35 AM 68.0 °F 60.8 °F 78% 29.94 in 10.0 mi NNW 8.1 mph - N/A   Scattered Clouds
9:55 AM 68.0 °F 60.8 °F 78% 29.94 in 10.0 mi North 6.9 mph - N/A   Scattered Clouds
10:15 AM 66.2 °F 60.8 °F 83% 29.94 in 10.0 mi NNW 8.1 mph - N/A   Scattered Clouds
10:35 AM 68.0 °F 62.6 °F 83% 29.94 in 10.0 mi North 9.2 mph - N/A   Scattered Clouds
10:55 AM 69.8 °F 64.4 °F 83% 29.94 in 10.0 mi North 6.9 mph - N/A   Scattered Clouds
11:15 AM 69.8 °F 64.4 °F 83% 29.95 in 10.0 mi North 8.1 mph - N/A   Scattered Clouds
11:35 AM 71.6 °F 64.4 °F 78% 29.94 in 10.0 mi North 13.8 mph - N/A   Clear
11:55 AM 71.6 °F 64.4 °F 78% 29.94 in 10.0 mi NNE 12.7 mph 18.4 mph N/A   Scattered Clouds
12:15 PM 73.4 °F 64.4 °F 73% 29.94 in 10.0 mi North 12.7 mph 16.1 mph N/A   Scattered Clouds
12:35 PM 73.4 °F 64.4 °F 73% 29.94 in 10.0 mi North 11.5 mph 19.6 mph N/A   Scattered Clouds
12:55 PM 71.6 °F 64.4 °F 78% 29.94 in 10.0 mi NNW 11.5 mph 17.3 mph N/A   Mostly Cloudy
1:15 PM 73.4 °F 64.4 °F 73% 29.93 in 10.0 mi NNW 11.5 mph 18.4 mph N/A   Mostly Cloudy
1:35 PM 73.4 °F 64.4 °F 73% 29.93 in 10.0 mi NNW 10.4 mph 18.4 mph N/A   Mostly Cloudy
1:55 PM 71.6 °F 64.4 °F 78% 29.93 in 10.0 mi North 9.2 mph - N/A Rain Light Rain
2:15 PM 71.6 °F 64.4 °F 78% 29.94 in 10.0 mi North 10.4 mph 16.1 mph N/A Rain Light Rain
2:35 PM 71.6 °F 64.4 °F 78% 29.94 in 10.0 mi North 4.6 mph - N/A   Light Drizzle
2:55 PM 71.6 °F 64.4 °F 78% 29.94 in 10.0 mi North 5.8 mph - N/A Rain Light Rain
3:15 PM 69.8 °F 64.4 °F 83% 29.94 in 10.0 mi North 8.1 mph - 0.01 in Rain Light Rain
3:35 PM 69.8 °F 64.4 °F 83% 29.95 in 10.0 mi North 10.4 mph 17.3 mph 0.01 in Rain Rain
3:55 PM 68.0 °F 62.6 °F 83% 29.94 in 10.0 mi North 6.9 mph - 0.02 in Rain Rain
4:15 PM 66.2 °F 64.4 °F 94% 29.94 in 10.0 mi NNE 4.6 mph - 0.01 in Rain Light Rain
4:35 PM 68.0 °F 64.4 °F 88% 29.94 in 7.0 mi Calm Calm - 0.02 in Rain Light Rain
4:55 PM 68.0 °F 64.4 °F 88% 29.93 in 10.0 mi Calm Calm - 0.03 in Rain Rain
5:15 PM 68.0 °F 64.4 °F 88% 29.93 in 10.0 mi Calm Calm - N/A   Drizzle
5:35 PM 69.8 °F 66.2 °F 88% 29.92 in 10.0 mi Calm Calm - 0.01 in   Light Drizzle
5:55 PM 69.8 °F 66.2 °F 88% 29.94 in 10.0 mi NE 8.1 mph - 0.01 in Rain Light Rain
6:15 PM 68.0 °F 64.4 °F 88% 29.95 in 7.0 mi North 12.7 mph 18.4 mph 0.04 in Rain Heavy Rain
6:35 PM 66.2 °F 64.4 °F 94% 29.94 in 10.0 mi NW 6.9 mph - 0.08 in Rain Light Rain
6:55 PM 66.2 °F 64.4 °F 94% 29.96 in 10.0 mi ENE 9.2 mph - 0.08 in Rain Rain
7:15 PM 66.2 °F 64.4 °F 94% 29.95 in 7.0 mi ENE 3.5 mph - 0.01 in Rain Light Rain
7:35 PM 66.2 °F 64.4 °F 94% 29.96 in 10.0 mi Calm Calm - 0.01 in Rain Light Rain
7:55 PM 66.2 °F 64.4 °F 94% 29.96 in 10.0 mi Calm Calm - 0.02 in Rain Light Rain
8:15 PM 66.2 °F 64.4 °F 94% 29.96 in 7.0 mi Calm Calm - 0.01 in Rain Light Rain
8:35 PM 66.2 °F 64.4 °F 94% 29.96 in 10.0 mi Calm Calm - 0.01 in   Light Drizzle
8:55 PM 66.2 °F 64.4 °F 94% 29.97 in 7.0 mi Calm Calm - 0.03 in Rain Rain
9:15 PM 66.2 °F 64.4 °F 94% 29.96 in 10.0 mi Calm Calm - 0.01 in   Drizzle
9:35 PM 66.2 °F 64.4 °F 94% 29.96 in 10.0 mi Calm Calm - 0.01 in   Overcast
9:55 PM 66.2 °F 64.4 °F 94% 29.97 in 4.0 mi Calm Calm - 0.07 in Rain , Thunderstorm Heavy Thunderstorms and Rain
10:15 PM 66.2 °F 64.4 °F 94% 29.98 in 10.0 mi NNE 11.5 mph - 0.10 in Rain Rain
10:35 PM 64.4 °F 62.6 °F 94% 29.97 in 10.0 mi North 9.2 mph - 0.27 in Rain Heavy Rain
10:55 PM 64.4 °F 62.6 °F 94% 29.97 in 10.0 mi North 9.2 mph - 0.36 in Rain Heavy Rain
11:15 PM 66.2 °F 64.4 °F 94% 29.96 in 10.0 mi NNW 8.1 mph - 0.03 in Rain Rain
11:35 PM 66.2 °F 64.4 °F 94% 29.96 in 10.0 mi North 6.9 mph - 0.04 in Rain Light Rain
11:55 PM 64.4 °F 62.6 °F 94% 29.96 in 10.0 mi North 8.1 mph - 0.05 in Rain Rain